MOLNIYA 3-47

Last updated on Jan. 25, 2020, 4:43 a.m. UTC

1 23642U 95042A   20023.83221904 -.00000965  00000-0  41166-1 0  9993
2 23642  63.2063 171.9559 6850537 288.9016  12.1483  2.01951394179420
UTC
Height (km)
Latitude
Longitude
Inclination
Orbital Period
UTC large
Height (km)
Speed (km/s)
/
Latitude / Longitude
Inclination (degrees)
Orbital Period (minutes)
Azimuth
Elevation
Range (km)
Doppler Factor
iOS Compass Heading
iOS Angle

Next 30 passes for location: Hong Kong

Rise time Rise Azimuth (degrees) Set time Set Azimuth (degrees) Duration Max altitude (degrees)

No matching passes for this satellites